Total_Precipitation_Accumulation
0.00 0.00 0.00 0.01 0.01 0.01 0.01 0.02 0.03 0.04 0.05 0.05 0.05 0.05 0.05 0.05 0.04 0.03 0.02 0.02 0.03 0.06 0.10 0.12 0.12 0.14 0.17 0.11 0.04 0.01 0.00 0.00 0.00 0.01 0.02 0.02 0.03 0.04 0.06 0.06 0.04 0.05 0.02
0.01 0.00 0.00 0.01 0.01 0.01 0.01 0.01 0.02 0.03 0.03 0.03 0.03 0.03 0.03 0.03 0.03 0.03 0.03 0.03 0.04 0.06 0.07 0.09 0.10 0.11 0.10 0.05 0.01 0.00 0.00 0.00 0.00 0.01 0.03 0.08 0.10 0.08 0.14 0.17 0.12 0.09 0.02
0.01 0.00 0.00 0.01 0.01 0.01 0.01 0.01 0.01 0.02 0.02 0.02 0.02 0.02 0.02 0.02 0.03 0.03 0.03 0.04 0.07 0.09 0.08 0.07 0.06 0.05 0.03 0.01 0.00 0.00 0.00 0.00 0.00 0.01 0.08 0.30 0.37 0.26 0.21 0.20 0.18 0.12 0.07
0.01 0.00 0.00 0.00 0.01 0.01 0.00 0.01 0.01 0.01 0.02 0.02 0.02 0.02 0.01 0.02 0.03 0.04 0.04 0.06 0.10 0.13 0.11 0.07 0.05 0.03 0.01 0.00 0.00 0.00 0.00 0.00 0.00 0.04 0.15 0.37 0.61 0.54 0.28 0.21 0.17 0.17 0.21
0.00 0.00 0.00 0.01 0.01 0.01 0.00 0.00 0.00 0.01 0.01 0.02 0.02 0.02 0.02 0.03 0.03 0.05 0.08 0.12 0.14 0.14 0.15 0.12 0.07 0.04 0.01 0.00 0.00 0.00 0.00 0.00 0.02 0.08 0.21 0.50 0.79 0.57 0.37 0.30 0.24 0.21 0.27
0.01 0.00 0.00 0.01 0.01 0.01 0.01 0.00 0.01 0.01 0.01 0.02 0.02 0.03 0.03 0.03 0.04 0.07 0.15 0.21 0.20 0.18 0.21 0.20 0.16 0.10 0.04 0.02 0.01 0.00 0.00 0.01 0.05 0.13 0.25 0.57 0.76 0.52 0.41 0.34 0.30 0.28 0.30
0.02 0.00 0.00 0.01 0.02 0.01 0.01 0.01 0.01 0.02 0.03 0.04 0.04 0.04 0.04 0.05 0.06 0.12 0.20 0.22 0.22 0.22 0.23 0.19 0.13 0.07 0.05 0.05 0.03 0.02 0.03 0.02 0.04 0.11 0.23 0.40 0.46 0.32 0.28 0.23 0.21 0.23 0.27
0.02 0.00 0.00 0.01 0.03 0.02 0.01 0.01 0.02 0.03 0.04 0.05 0.06 0.06 0.04 0.04 0.06 0.12 0.16 0.20 0.22 0.19 0.15 0.12 0.09 0.08 0.09 0.09 0.07 0.07 0.07 0.04 0.03 0.07 0.17 0.24 0.23 0.11 0.09 0.07 0.07 0.08 0.09
0.02 0.01 0.01 0.02 0.02 0.02 0.01 0.02 0.02 0.03 0.03 0.04 0.04 0.04 0.03 0.05 0.07 0.10 0.14 0.20 0.21 0.13 0.09 0.08 0.07 0.06 0.06 0.06 0.05 0.03 0.02 0.02 0.01 0.02 0.04 0.05 0.04 0.02 0.02 0.02 0.01 0.01 0.02
0.07 0.04 0.04 0.05 0.02 0.01 0.01 0.01 0.01 0.01 0.01 0.01 0.02 0.02 0.04 0.08 0.09 0.12 0.10 0.12 0.12 0.08 0.04 0.03 0.02 0.01 0.01 0.01 0.01 0.00 0.00 0.00 0.00 0.01 0.01 0.00 0.01 0.01 0.01 0.01 0.01 0.00 0.00
0.19 0.18 0.16 0.10 0.03 0.01 0.01 0.00 0.00 0.00 0.00 0.00 0.02 0.03 0.07 0.11 0.12 0.13 0.08 0.08 0.05 0.03 0.01 0.01 0.00 0.00 0.00 0.00 0.00 0.00 0.00 0.00 0.00 0.00 0.00 0.00 0.00 0.01 0.01 0.01 0.01 0.00 0.00
0.25 0.25 0.08 0.06 0.01 0.00 0.00 0.00 0.00 0.00 0.00 0.01 0.05 0.03 0.09 0.14 0.14 0.10 0.06 0.04 0.02 0.01 0.01 0.00 0.00 0.00 0.00 0.00 0.00 0.00 0.00 0.00 0.00 0.00 0.00 0.00 0.00 0.01 0.01 0.02 0.01 0.01 0.00
0.06 0.05 0.03 0.02 0.00 0.00 0.00 0.00 0.00 0.01 0.01 0.02 0.03 0.04 0.08 0.07 0.05 0.05 0.04 0.03 0.02 0.01 0.01 0.01 0.00 0.00 0.00 0.00 0.00 0.00 0.00 0.00 0.00 0.00 0.00 0.00 0.01 0.01 0.02 0.02 0.01 0.01 0.01
0.07 0.03 0.01 0.01 0.01 0.00 0.00 0.00 0.00 0.01 0.01 0.01 0.01 0.01 0.03 0.06 0.06 0.06 0.05 0.04 0.04 0.03 0.02 0.01 0.00 0.00 0.00 0.00 0.00 0.00 0.00 0.00 0.00 0.00 0.00 0.01 0.01 0.02 0.02 0.03 0.02 0.02 0.02
0.14 0.05 0.02 0.01 0.00 0.00 0.00 0.00 0.00 0.00 0.00 0.00 0.00 0.01 0.02 0.03 0.03 0.03 0.03 0.03 0.03 0.02 0.02 0.01 0.00 0.00 0.00 0.00 0.00 0.00 0.00 0.00 0.00 0.00 0.00 0.01 0.02 0.02 0.03 0.04 0.04 0.04 0.05
0.18 0.07 0.04 0.02 0.01 0.01 0.01 0.00 0.00 0.00 0.01 0.01 0.01 0.01 0.01 0.02 0.04 0.03 0.03 0.04 0.04 0.03 0.03 0.02 0.01 0.01 0.01 0.00 0.00 0.00 0.00 0.00 0.00 0.00 0.00 0.01 0.02 0.03 0.04 0.06 0.07 0.08 0.10
0.25 0.11 0.08 0.04 0.03 0.02 0.01 0.01 0.01 0.02 0.03 0.04 0.04 0.03 0.02 0.02 0.04 0.05 0.07 0.08 0.07 0.06 0.06 0.05 0.05 0.03 0.02 0.02 0.02 0.01 0.01 0.01 0.01 0.01 0.02 0.02 0.03 0.04 0.05 0.06 0.07 0.07 0.09
0.29 0.22 0.15 0.06 0.05 0.04 0.02 0.01 0.01 0.03 0.04 0.06 0.06 0.05 0.03 0.05 0.07 0.11 0.15 0.19 0.18 0.16 0.16 0.16 0.14 0.11 0.08 0.06 0.05 0.04 0.03 0.03 0.03 0.03 0.03 0.03 0.03 0.03 0.04 0.05 0.05 0.07 0.08
0.28 0.22 0.12 0.09 0.06 0.05 0.04 0.03 0.04 0.06 0.08 0.08 0.09 0.09 0.11 0.16 0.22 0.30 0.38 0.38 0.34 0.30 0.28 0.26 0.25 0.21 0.17 0.14 0.10 0.08 0.07 0.07 0.07 0.06 0.05 0.04 0.03 0.03 0.02 0.04 0.05 0.09 0.10
0.35 0.29 0.22 0.14 0.08 0.10 0.11 0.11 0.12 0.13 0.17 0.20 0.25 0.33 0.40 0.50 0.57 0.61 0.61 0.56 0.47 0.41 0.39 0.38 0.34 0.29 0.22 0.17 0.11 0.07 0.06 0.06 0.05 0.05 0.04 0.03 0.03 0.02 0.02 0.01 0.02 0.04 0.07
0.46 0.36 0.25 0.18 0.20 0.24 0.29 0.32 0.44 0.50 0.59 0.77 0.91 0.99 1.03 1.04 0.99 0.95 0.87 0.77 0.64 0.56 0.48 0.38 0.30 0.23 0.18 0.14 0.11 0.07 0.04 0.03 0.02 0.01 0.01 0.01 0.01 0.01 0.01 0.01 0.01 0.01 0.03
0.46 0.39 0.35 0.38 0.41 0.45 0.61 0.81 1.01 1.20 1.39 1.58 1.70 1.70 1.63 1.49 1.35 1.21 1.07 0.92 0.74 0.60 0.48 0.37 0.27 0.19 0.13 0.10 0.09 0.06 0.03 0.01 0.00 0.00 0.00 0.00 0.00 0.00 0.00 0.01 0.00 0.00 0.01
0.43 0.47 0.51 0.62 0.72 0.82 1.04 1.27 1.54 1.85 2.06 2.06 1.95 1.85 1.74 1.59 1.43 1.24 1.05 0.90 0.76 0.59 0.45 0.33 0.22 0.14 0.09 0.06 0.04 0.05 0.04 0.02 0.01 0.00 0.00 0.00 0.00 0.00 0.00 0.00 0.00 0.01 0.01
0.35 0.44 0.54 0.69 0.96 1.29 1.67 1.98 2.18 2.29 2.29 2.11 1.87 1.66 1.42 1.23 1.10 0.96 0.87 0.79 0.64 0.47 0.34 0.23 0.15 0.09 0.06 0.04 0.03 0.03 0.03 0.03 0.03 0.02 0.00 0.00 0.00 0.00 0.00 0.00 0.00 0.00 0.00
0.40 0.55 0.73 0.95 1.29 1.64 1.94 2.16 2.30 2.23 2.00 1.71 1.43 1.15 0.90 0.75 0.71 0.67 0.60 0.49 0.36 0.26 0.20 0.14 0.09 0.07 0.05 0.04 0.03 0.02 0.02 0.01 0.02 0.03 0.02 0.01 0.00 0.00 0.00 0.00 0.01 0.02 0.02
0.48 0.69 0.88 1.09 1.41 1.69 1.80 1.89 1.84 1.74 1.52 1.21 0.92 0.68 0.53 0.45 0.39 0.33 0.29 0.25 0.20 0.14 0.11 0.09 0.06 0.05 0.03 0.03 0.02 0.02 0.02 0.02 0.02 0.02 0.02 0.01 0.01 0.00 0.00 0.00 0.00 0.01 0.01